Location: Stigler
(35.2540°N, 95.1230°W)
Time: 22:33:54
(UTC-05:00)

Daily predictions for brighter satellites

Satellite Brightness Start Highest point End
(mag) Time Altitude Azimuth Time Altitude Azimuth Time Altitude Azimuth
Atlas Centaur 2 2.9 20:43:58 10° WSW 20:50:12 58° S 20:57:53 10° E
Cosmos 1943 3.9 20:50:15 10° SSE 20:55:11 32° ESE 21:00:10 10° NE
Meteor 1-23 Rocket 4.5 20:49:33 10° S 20:55:12 81° W 21:00:58 10° N
Tsikada Rocket 4.5 20:50:20 10° SSE 20:56:19 44° E 21:02:17 10° NNE
H-2A R/B 3.3 20:54:25 10° SE 20:57:58 26° ENE 21:01:36 10° NNE
Cosmos 2228 3.1 20:55:48 10° N 21:00:11 63° E 21:04:32 10° SSE
Meteor 2-4 Rocket 4.2 20:55:35 10° SSW 21:01:26 71° W 21:07:22 10° N
Cosmos 1626 Rocket 3.6 21:00:00 10° S 21:04:21 59° E 21:08:41 10° NNE
YAOGAN 11 4.2 21:00:40 10° SSE 21:04:55 58° ENE 21:09:09 10° N
deb Chang Zheng 4 3.9 21:03:45 10° NNE 21:07:56 43° E 21:12:04 10° S
Abrixas rocket 4.3 21:05:35 10° W 21:08:17 22° SW 21:10:59 10° S
H-2A R/B 2.8 21:05:11 10° SSE 21:09:08 85° ENE 21:13:07 10° N
Cosmos 1464 Rocket 4.0 21:04:17 10° N 21:10:28 89° E 21:16:41 10° S
Centaur D AC-28 3.0 21:08:16 10° WSW 21:12:04 25° SSW 21:15:06 10° SE
Delta 168 4.3 21:13:33 10° SW 21:15:25 15° S 21:17:15 11° SSE
Cosmos 1461 3.5 21:11:54 10° NW 21:16:01 54° WSW 21:19:55 10° SSE
Cosmos 1939 Rocket 4.0 21:12:46 10° SE 21:16:20 30° ENE 21:19:57 10° N
ATLAS 3B R/B 3.0 21:11:35 10° SSW 21:19:05 58° ESE 21:26:29 10° NE
Cosmos 1346 Rocket 4.3 21:19:41 13° SE 21:21:46 19° E 21:24:32 10° NE
SPOT 5 3.9 21:21:03 13° ESE 21:24:02 25° ENE 21:27:34 10° NNE
Cosmos 2034 Rocket 4.1 21:26:09 10° N 21:32:31 83° W 21:38:47 10° S
Cosmos 1666 4.1 21:34:31 10° NNW 21:38:10 38° W 21:41:47 10° SSW
Cosmos 2369 Rocket 2.7 21:35:26 10° N 21:40:51 45° ENE 21:44:34 19° SE
ERS-1 Rocket 3.1 21:37:35 10° S 21:42:35 79° WSW 21:47:37 10° NNW
COSMOS 2455 3.9 21:38:30 10° SW 21:44:17 49° WNW 21:50:07 10° NNE
YAOGAN 6 4.3 21:43:54 17° E 21:45:02 20° ENE 21:47:46 10° NNE
GRACE-1 4.2 21:45:08 10° N 21:47:59 69° W 21:50:09 16° S
GRACE-2 4.2 21:45:35 10° N 21:48:26 68° W 21:50:33 16° S
Cosmos 1900 4.3 21:46:34 10° SSW 21:51:43 82° ESE 21:56:52 10° NNE
Cosmos 1758 Rocket 4.0 21:57:14 26° SE 21:59:09 42° E 22:03:16 10° NNE
Envisat 2.9 21:57:17 20° SSE 22:00:51 82° ENE 22:05:58 10° N
CZ-2C R/B 3.3 22:01:12 10° SW 22:02:40 15° W 22:04:10 10° NW
GEOS 3 Rocket 3.7 21:59:26 22° SSE 22:02:52 78° WSW 22:08:07 10° NW
Cosmos 407 Rocket 3.4 21:58:46 10° SSW 22:04:02 83° ESE 22:09:16 10° NNE
USA 238 DEB 3.9 21:59:58 10° S 22:06:46 50° ESE 22:13:32 10° NE
USA 238 3.9 22:00:06 10° S 22:06:52 49° ESE 22:13:37 10° NE
SL-27 R/B 3.4 22:10:37 29° ENE 22:10:37 29° ENE 22:12:56 10° NE
Cosmos 1825 Rocket 3.9 22:10:34 12° SSW 22:14:38 67° W 22:19:02 10° N
MetOp-A 4.1 22:12:57 29° SSE 22:15:47 74° ENE 22:21:08 10° N
Cosmos 2263 4.2 22:10:57 10° NNW 22:16:33 66° ENE 22:19:04 33° SE
UNK 4.4 22:17:42 10° N 22:23:16 78° WNW 22:29:08 10° SSW
COSMOS 2406 3.5 22:21:23 33° SSE 22:23:20 45° ESE 22:28:45 10° NE
Lacrosse 4 Rocket 3.1 22:19:53 10° SW 22:23:33 33° WNW 22:27:16 10° N
Cosmos 1954 Rocket 3.9 22:21:57 21° S 22:25:31 74° ESE 22:30:49 10° NNE
Cosmos 1943 Rocket 2.7 22:24:52 10° N 22:30:12 45° ENE 22:31:53 35° ESE
Cosmos 2084 4.4 22:29:03 10° NNW 22:32:53 34° NE 22:33:35 32° ENE
H-2A R/B 4.1 22:30:32 10° SSW 22:33:54 22° W 22:37:21 10° NW
SeaSat 1 2.4 22:32:37 44° SE 22:34:10 78° ENE 22:39:07 10° NNW
CZ-4C R/B 4.0 22:36:09 40° ENE 22:36:14 40° ENE 22:40:00 10° N
Atlas Centaur 2 3.0 22:32:37 10° W 22:39:39 55° S 22:42:50 36° SE
Meteor 1-22 Rocket 4.4 22:36:09 10° NNW 22:41:50 72° W 22:44:35 33° S
Landsat 7 4.3 22:41:38 41° E 22:42:09 42° ENE 22:46:38 10° N
Kosmos-1675 3.5 22:47:09 53° WSW 22:47:42 69° NW 22:54:18 10° NNE
Cosmos 1741 Rocket 4.0 22:49:48 55° SE 22:50:18 58° ESE 22:55:31 10° NNE
Cosmos 1953 2.8 22:49:33 10° N 22:52:53 48° NE 22:52:53 48° NE
PSLV R/B 4.4 22:50:46 10° WNW 22:54:07 43° N 22:54:07 43° N
CZ-4B R/B 4.5 22:49:59 10° N 22:54:54 46° WNW 22:59:09 14° SW
CZ-4 R/B 4.2 22:50:11 10° N 22:55:10 66° WNW 22:57:25 32° SSW
Geosat 3.9 22:50:52 10° NNE 22:55:51 60° ESE 22:55:55 60° ESE
OAO 1 Rocket 4.3 22:52:02 10° WSW 22:57:10 63° S 22:57:10 63° S
Terra 2.4 22:57:56 42° ENE 22:57:58 42° ENE 23:02:27 10° N
Nadezhda 4 Rocket 4.0 22:58:24 50° SE 22:59:50 64° E 23:06:05 10° NNE
Cosmos 1023 Rocket 4.5 22:58:38 43° SSW 23:00:25 81° WNW 23:05:43 10° NNE
ARGOS 3.2 22:59:31 51° S 23:00:54 75° WSW 23:06:21 10° NNW
ATLAS 5 CENTAUR R/B4.123:21:28ESE23:21:28ESE22:56:01SW
Cosmos 1842 3.8 23:00:59 53° W 23:01:13 54° W 23:05:04 10° N
Cosmos-2242 3.0 23:00:33 10° N 23:04:55 84° WNW 23:04:55 84° WNW
Cosmos 1850 Rocket 3.8 23:04:58 65° S 23:05:45 86° ESE 23:11:00 10° NNE
Cosmos 1140 Rocket 3.7 23:06:28 40° SW 23:08:20 68° WNW 23:13:34 10° NNE
H-2A R/B 1.9 23:14:20 71° E 23:14:25 71° ENE 23:19:28 10° N
Cosmos 1570 Rocket 3.9 23:09:07 10° NNW 23:14:29 73° ENE 23:14:45 71° E
Cosmos 1607 4.3 23:16:52 16° SW 23:21:53 64° WNW 23:28:04 10° NNE
NOSS 3-2 (A) 3.3 23:22:47 66° ESE 23:22:53 66° ESE 23:29:17 10° NE
Cosmos 2369 Rocket 4.0 23:20:25 10° NW 23:24:27 20° W 23:26:23 17° SW
USA 234 3.3 23:24:29 52° ESE 23:26:09 73° NE 23:32:42 10° NW
Cosmos 614 Rocket 4.0 23:27:50 69° WSW 23:28:14 72° WNW 23:33:27 10° NNE
CARTOSAT-1 4.3 23:39:08 49° NW 23:39:08 49° NW 23:42:33 10° NNW
Cosmos 2026 Rocket 4.3 23:39:36 49° ENE 23:39:36 49° ENE 23:44:58 10° NNE
Meteor 2-5 Rocket 3.7 23:42:55 81° ENE 23:42:55 81° ENE 23:48:34 10° N
CZ-4C R/B 2.2 23:48:41 75° N 23:48:41 75° N 23:54:05 10° NNE
Cosmos 1627 Rocket 4.4 23:52:53 75° ENE 23:52:53 75° ENE 23:58:48 10° N
